BADBUCHAU Weather Reports


Display with metric or nautical units.
time (UTC)temp
F
wind
direction
speed
MPH
gust
MPH
rain 1hr
in
rain 24hr
in
rain mn
in
humidity
%
barometer
mb
20260507063211 47 178 14.0 0.0 0.00 0.00 0.02 91 1012.2
20260507060211 47 206 11.0 0.0 0.00 0.00 0.01 91 1012.0
20260507053211 47 177 14.0 0.0 0.00 0.00 0.00 91 1011.7
20260507050213 46 175 15.0 0.0 0.00 0.00 0.00 90 1011.3
20260507043211 46 175 14.0 0.0 0.00 0.00 0.00 90 1011.0
20260507040216 46 204 12.0 0.0 0.00 0.00 0.00 89 1010.7
20260507033211 46 184 11.0 0.0 0.00 0.00 0.00 88 1010.5
20260507030211 46 171 12.0 0.0 0.00 0.00 0.00 88 1010.4
20260507023211 46 163 12.0 0.0 0.00 0.00 0.00 88 1010.3
20260507020211 46 178 14.0 0.0 0.00 0.00 0.00 88 1010.3
20260507013212 45 195 14.0 0.0 0.00 0.00 0.00 90 1010.2
20260507010211 45 171 16.0 0.0 0.00 0.00 0.00 91 1010.0
20260507003209 46 165 16.0 0.0 0.00 0.00 0.00 91 1009.7
20260507000209 46 167 13.0 0.0 0.00 0.00 0.00 88 1009.7
20260506233209 47 157 13.0 0.0 0.00 0.00 0.00 87 1009.8
20260506230209 47 195 9.0 0.0 0.00 0.00 0.00 87 1009.8
20260506223209 47 175 10.0 0.0 0.00 0.00 0.00 88 1009.6
20260506220209 47 175 14.0 0.0 0.00 0.00 0.00 88 1009.4
20260506213209 47 172 13.0 0.0 0.00 0.00 0.02 88 1009.3
20260506210210 47 184 12.0 0.0 0.00 0.00 0.02 88 1009.1
20260506203210 47 168 6.0 0.0 0.00 0.00 0.02 88 1009.2
20260506200210 48 178 14.0 0.0 0.00 0.00 0.02 88 1009.0
20260506193215 48 200 15.0 0.0 0.00 0.00 0.02 87 1008.4
20260506190211 48 224 17.0 0.0 0.00 0.00 0.02 86 1008.0
20260506183209 49 180 21.0 0.0 0.00 0.00 0.02 83 1007.6
20260506180216 50 179 20.0 0.0 0.00 0.00 0.02 85 1007.4
20260506173210 50 177 13.0 0.0 0.00 0.00 0.02 90 1007.3
20260506170215 49 204 14.0 0.0 0.00 0.00 0.02 90 1006.6
20260506163210 49 219 21.0 0.0 0.00 0.00 0.02 89 1006.7
20260506160210 49 221 18.0 0.0 0.00 0.00 0.01 89 1006.4
20260506153210 49 222 24.0 0.0 0.00 0.00 0.00 90 1006.3
20260506150210 52 178 39.0 0.0 0.00 0.00 0.00 86 1005.1
20260506143210 58 190 25.0 0.0 0.00 0.00 0.00 73 1004.4
20260506140210 60 227 15.0 0.0 0.00 0.00 0.00 66 1004.0
20260506133211 60 198 7.0 0.0 0.00 0.00 0.00 68 1004.3
20260506130211 59 271 6.0 0.0 0.00 0.00 0.00 67 1004.6
20260506123210 61 258 6.0 0.0 0.00 0.00 0.00 66 1004.4
20260506120210 60 206 5.0 0.0 0.00 0.00 0.00 67 1004.3
20260506113217 60 213 4.0 0.0 0.00 0.00 0.00 69 1004.4
20260506110210 59 328 4.0 0.0 0.00 0.00 0.00 69 1004.6
20260506100213 56 306 5.0 0.0 0.00 0.00 0.00 77 1004.6
20260506093211 56 289 0.0 0.0 0.00 0.00 0.00 75 1005.1
20260506090211 56 264 4.0 0.0 0.00 0.00 0.00 75 1005.1
20260506083211 55 254 3.0 0.0 0.00 0.00 0.00 79 1005.0
20260506080212 54 231 6.0 0.0 0.00 0.00 0.00 81 1004.9
20260506073211 54 146 2.0 0.0 0.00 0.00 0.00 83 1005.2
20260506070212 53 80 8.0 0.0 0.00 0.00 0.00 86 1005.4